Lowell, ID

11:19 AM MDT on June 25, 2017 (GMT -0600)
Lowell

Weather History for KP69 - January, 2013

Change the Weather History Date:

Tuesday, January 15, 2013

  Actual Average Record
Temperature  
Mean Temperature 30 °F -  
Max Temperature 39 °F 37 °F 48 °F (1999)
Min Temperature 26 °F 28 °F 7 °F (2017)
Degree Days  
Heating Degree Days 34    
Moisture  
Dew Point 25 °F    
Average Humidity 85    
Maximum Humidity 92    
Minimum Humidity 67    
Precipitation  
Precipitation 0.00 in - - ()
Sea Level Pressure  
Sea Level Pressure 30.70 in    
Wind  
Wind Speed 0 mph (North)    
Max Wind Speed 0 mph    
Max Gust Speed -    
Averages and records for this station are not official NWS values.
T = Trace of Precipitation, MM = Missing Value Source: NWS Daily Summary

Daily Weather History Graph

Daily Weather History Graph

Search for Another Location

Airport or City:

Trip Planner

Search our weather history database for the weather conditions in past years. The results will help you decide how hot, cold, wet, or windy it might be!

Date:

Astronomy

Jan. 15, 2013 Rise Set
Actual Time 8:18 AM MST 5:24 PM MST
Civil Twilight 7:45 AM MST 5:57 PM MST
Nautical Twilight 7:08 AM MST 6:34 PM MST
Astronomical Twilight 6:32 AM MST 7:10 PM MST
Moon 10:10 AM MST (1/15) 10:36 PM MST (1/15)
Length of Visible Light 10h 11m
Length of Day
9h 05m
Waxing Crescent, 20% of the Moon is Illuminated
Jan 15
Waxing Crescent
Jan 18
First Quarter
Jan 26
Full
Feb 3
Last Quarter
Feb 10
New

Hourly Weather History & Observations

Time (MST) Temp. Dew Point Humidity Pressure Visibility Wind Dir Wind Speed Gust Speed Precip Events Conditions
12:52 AM 26.1 °F 23.0 °F 88% 30.63 in - Calm Calm - N/A   Unknown
1:52 AM 26.1 °F 23.0 °F 88% 30.63 in - Calm Calm - N/A   Unknown
2:52 AM 26.1 °F 23.0 °F 88% 30.65 in - Calm Calm - N/A   Unknown
3:52 AM 27.0 °F 24.1 °F 89% 30.66 in - Calm Calm - N/A   Unknown
4:52 AM 27.0 °F 24.1 °F 89% 30.64 in - Calm Calm - N/A   Unknown
5:52 AM 27.0 °F 24.1 °F 89% 30.65 in - Calm Calm - N/A   Unknown
6:52 AM 27.0 °F 24.1 °F 89% 30.66 in - Calm Calm - N/A   Unknown
7:52 AM 27.0 °F 24.1 °F 89% 30.69 in - Calm Calm - N/A   Unknown
8:52 AM 27.0 °F 24.1 °F 89% 30.71 in - Calm Calm - N/A   Unknown
9:52 AM 28.0 °F 24.1 °F 85% 30.73 in - Calm Calm - N/A   Unknown
10:52 AM 28.9 °F 24.1 °F 82% 30.73 in - Calm Calm - N/A   Unknown
11:52 AM 34.0 °F 24.1 °F 67% 30.74 in - Calm Calm - N/A   Unknown
12:52 PM 34.0 °F 25.0 °F 70% 30.71 in - Calm Calm - N/A   Unknown
1:52 PM 35.1 °F 27.0 °F 72% 30.70 in - Calm Calm - N/A   Unknown
2:52 PM 34.0 °F 28.0 °F 79% 30.72 in - Calm Calm - N/A   Unknown
3:52 PM 32.0 °F 28.0 °F 85% 30.72 in - Calm Calm - N/A   Unknown
4:52 PM 30.0 °F 27.0 °F 88% 30.73 in - Calm Calm - N/A   Unknown
5:52 PM 28.9 °F 27.0 °F 92% 30.73 in - Calm Calm - N/A   Unknown
6:52 PM 30.0 °F 27.0 °F 88% 30.73 in - Calm Calm - N/A   Unknown
7:52 PM 30.0 °F 27.0 °F 88% 30.74 in - Calm Calm - N/A   Unknown
8:52 PM 30.0 °F 27.0 °F 88% 30.74 in - Calm Calm - N/A   Unknown
9:52 PM 30.0 °F 26.1 °F 85% 30.74 in - Calm Calm - N/A   Unknown
10:52 PM 28.9 °F 25.0 °F 85% 30.74 in - Calm Calm - N/A   Unknown
11:52 PM 28.0 °F 24.1 °F 85% 30.73 in - Calm Calm - N/A   Unknown